Tracking 31027 objects as of 19-Jul-2025
HD Live streaming from Space Station
objects crossing your sky now

COSMOS 2564 (GLONASS)

Track COSMOS 2564 (GLONASS) now!
COSMOS 2564 (GLONASS) is classified as:


NORAD ID: 54377
Int'l Code: 2022-161A
Perigee: 19,106.6 km
Apogee: 19,167.5 km
Inclination: 64.7 °
Period: 675.7 minutes
Semi major axis: 25508 km
RCS: Unknown
Launch date: November 28, 2022
Source: Commonwealth of Independent States (former USSR) (CIS)
Launch site: PLESETSK MISSILE AND SPACE COMPLEX (PKMTR)
SV: 761
Your satellite tracking list
PRISMA
Track 1 satellite(s)




NASA's NSSDC Master Catalog

Two Line Element Set (TLE):
1 54377U 22161A   25199.59736913  .00000119  00000-0  00000+0 0  9997
2 54377  64.7405 203.7843 0011947 225.4004 134.5351  2.13101976 20521
Source of the keplerian elements: AFSPC